RADUGA 32 [-]

Last updated on Jan. 23, 2021, 7:21 a.m. UTC

1 23448U 94087A   21022.50396861 -.00000059  00000-0  00000-0 0  9999
2 23448  14.7505   6.4279 0002677 232.1847 135.2071  1.00268719113112
UTC
Height (km)
Latitude
Longitude
Inclination
Orbital Period
UTC large
Height (km)
Speed (km/s)
/
Latitude / Longitude
Inclination (degrees)
Orbital Period (minutes)
Azimuth
Elevation
Range (km)
Doppler Factor
iOS Compass Heading
iOS Angle

Next 30 passes for location: Hong Kong

Rise time Rise Azimuth (degrees) Set time Set Azimuth (degrees) Duration Max altitude (degrees)

No matching passes for this satellites